Time,TemperatureF,DewpointF,PressureIn,WindDirection,WindDirectionDegrees,WindSpeedMPH,WindSpeedGustMPH,Humidity,HourlyPrecipIn,Conditions,Clouds,dailyrainin,SoftwareType,DateUTC
2013-02-18 00:02:00,25.0,11.0,30.45,ESE,110,0.0,3.0,55,0.00,,,0.00,,2013-02-18 05:02:00,
2013-02-18 00:11:00,25.0,11.0,30.45,ESE,110,0.0,3.0,55,0.00,,,0.00,,2013-02-18 05:11:00,
2013-02-18 00:21:00,25.0,12.0,30.45,SSE,166,0.0,1.0,57,0.00,,,0.00,,2013-02-18 05:21:00,
2013-02-18 00:32:00,24.0,12.0,30.45,South,174,0.0,2.0,60,0.00,,,0.00,,2013-02-18 05:32:00,
2013-02-18 00:42:00,24.0,12.0,30.45,South,174,0.0,2.0,60,0.00,,,0.00,,2013-02-18 05:42:00,
2013-02-18 00:52:00,24.0,11.0,30.45,East,97,1.0,5.0,58,0.00,,,0.00,,2013-02-18 05:52:00,
2013-02-18 01:02:00,23.0,11.0,30.46,East,98,0.0,2.0,59,0.00,,,0.00,,2013-02-18 06:02:00,
2013-02-18 01:11:00,23.0,11.0,30.46,East,98,0.0,2.0,59,0.00,,,0.00,,2013-02-18 06:11:00,
2013-02-18 01:22:00,23.0,11.0,30.46,East,99,0.0,2.0,59,0.00,,,0.00,,2013-02-18 06:22:00,
2013-02-18 01:32:00,23.0,11.0,30.46,East,99,0.0,0.0,59,0.00,,,0.00,,2013-02-18 06:32:00,
2013-02-18 01:42:00,23.0,11.0,30.46,East,99,0.0,0.0,59,0.00,,,0.00,,2013-02-18 06:42:00,
2013-02-18 01:51:00,23.0,11.0,30.46,East,99,0.0,1.0,60,0.00,,,0.00,,2013-02-18 06:51:00,
2013-02-18 02:02:00,23.0,12.0,30.46,SSW,210,0.0,2.0,61,0.00,,,0.00,,2013-02-18 07:02:00,
2013-02-18 02:11:00,23.0,12.0,30.46,SSW,210,0.0,2.0,61,0.00,,,0.00,,2013-02-18 07:11:00,
2013-02-18 02:22:00,23.0,11.0,30.46,SSW,210,0.0,2.0,60,0.00,,,0.00,,2013-02-18 07:22:00,
2013-02-18 02:32:00,23.0,11.0,30.46,SSW,210,0.0,0.0,60,0.00,,,0.00,,2013-02-18 07:32:00,
2013-02-18 02:42:00,23.0,11.0,30.46,SSW,210,0.0,0.0,60,0.00,,,0.00,,2013-02-18 07:42:00,
2013-02-18 02:52:00,22.0,11.0,30.46,SSW,210,0.0,0.0,62,0.00,,,0.00,,2013-02-18 07:52:00,
2013-02-18 03:01:00,22.0,12.0,30.47,SSW,210,0.0,1.0,65,0.00,,,0.00,,2013-02-18 08:01:00,
2013-02-18 03:11:00,22.0,12.0,30.47,SSW,210,0.0,1.0,65,0.00,,,0.00,,2013-02-18 08:11:00,
2013-02-18 03:21:00,22.0,12.0,30.47,SSW,210,0.0,0.0,64,0.00,,,0.00,,2013-02-18 08:21:00,
2013-02-18 03:33:00,22.0,12.0,30.47,SSW,210,0.0,0.0,65,0.00,,,0.00,,2013-02-18 08:33:00,
2013-02-18 03:42:00,22.0,12.0,30.47,SSW,210,0.0,0.0,65,0.00,,,0.00,,2013-02-18 08:42:00,
2013-02-18 03:52:00,22.0,12.0,30.48,SSW,210,0.0,0.0,65,0.00,,,0.00,,2013-02-18 08:52:00,
2013-02-18 04:03:00,22.0,12.0,30.48,SSW,210,0.0,0.0,65,0.00,,,0.00,,2013-02-18 09:03:00,
2013-02-18 04:11:00,22.0,12.0,30.48,SSW,210,0.0,0.0,65,0.00,,,0.00,,2013-02-18 09:11:00,
2013-02-18 04:22:00,22.0,12.0,30.48,SSW,210,0.0,1.0,66,0.00,,,0.00,,2013-02-18 09:22:00,
2013-02-18 04:32:00,22.0,12.0,30.48,SSW,210,0.0,0.0,66,0.00,,,0.00,,2013-02-18 09:32:00,
2013-02-18 04:42:00,22.0,12.0,30.48,SSW,210,0.0,0.0,66,0.00,,,0.00,,2013-02-18 09:42:00,
2013-02-18 04:52:00,21.0,12.0,30.49,SSW,210,0.0,1.0,67,0.00,,,0.00,,2013-02-18 09:52:00,
2013-02-18 05:01:00,21.0,12.0,30.49,SSW,210,0.0,0.0,68,0.00,,,0.00,,2013-02-18 10:01:00,
2013-02-18 05:11:00,21.0,12.0,30.49,SSW,210,0.0,0.0,68,0.00,,,0.00,,2013-02-18 10:11:00,
2013-02-18 05:22:00,21.0,12.0,30.50,SSW,210,0.0,0.0,68,0.00,,,0.00,,2013-02-18 10:22:00,
2013-02-18 05:32:00,21.0,12.0,30.50,SSW,210,0.0,0.0,67,0.00,,,0.00,,2013-02-18 10:32:00,
2013-02-18 05:42:00,21.0,12.0,30.50,SSW,210,0.0,0.0,67,0.00,,,0.00,,2013-02-18 10:42:00,
2013-02-18 05:53:00,21.0,12.0,30.51,SSW,210,0.0,0.0,69,0.00,,,0.00,,2013-02-18 10:53:00,
2013-02-18 06:02:00,21.0,12.0,30.51,SSW,210,0.0,0.0,69,0.00,,,0.00,,2013-02-18 11:02:00,
2013-02-18 06:11:00,21.0,12.0,30.51,SSW,210,0.0,0.0,69,0.00,,,0.00,,2013-02-18 11:11:00,
2013-02-18 06:22:00,21.0,13.0,30.52,SSW,210,0.0,0.0,71,0.00,,,0.00,,2013-02-18 11:22:00,
2013-02-18 06:32:00,20.0,12.0,30.52,SSW,210,0.0,0.0,71,0.00,,,0.00,,2013-02-18 11:32:00,
2013-02-18 06:42:00,20.0,12.0,30.52,SSW,210,0.0,0.0,71,0.00,,,0.00,,2013-02-18 11:42:00,
2013-02-18 06:53:00,20.0,12.0,30.52,SSW,210,0.0,0.0,72,0.00,,,0.00,,2013-02-18 11:53:00,
2013-02-18 07:02:00,20.0,12.0,30.52,SSW,210,0.0,0.0,72,0.00,,,0.00,,2013-02-18 12:02:00,
2013-02-18 07:22:00,20.0,13.0,30.52,SSW,210,0.0,0.0,73,0.00,,,0.00,,2013-02-18 12:22:00,
2013-02-18 07:32:00,20.0,12.0,30.52,SSW,210,0.0,0.0,72,0.00,,,0.00,,2013-02-18 12:32:00,
2013-02-18 07:42:00,20.0,12.0,30.52,SSW,210,0.0,0.0,72,0.00,,,0.00,,2013-02-18 12:42:00,
2013-02-18 07:53:00,20.0,12.0,30.52,SSW,210,0.0,0.0,71,0.00,,,0.00,,2013-02-18 12:53:00,
2013-02-18 08:03:00,20.0,13.0,30.52,SSW,210,0.0,0.0,75,0.00,,,0.00,,2013-02-18 13:03:00,
2013-02-18 08:23:00,21.0,14.0,30.52,SSW,210,0.0,0.0,73,0.00,,,0.00,,2013-02-18 13:23:00,
2013-02-18 08:32:00,21.0,15.0,30.53,SSW,210,0.0,1.0,76,0.00,,,0.00,,2013-02-18 13:32:00,
2013-02-18 08:42:00,21.0,15.0,30.53,SSW,210,0.0,1.0,76,0.00,,,0.00,,2013-02-18 13:42:00,
2013-02-18 08:53:00,22.0,16.0,30.53,SSW,210,0.0,1.0,76,0.00,,,0.00,,2013-02-18 13:53:00,
2013-02-18 09:02:00,22.0,15.0,30.53,SSW,210,0.0,1.0,73,0.00,,,0.00,,2013-02-18 14:02:00,
2013-02-18 09:22:00,24.0,17.0,30.53,SSW,210,0.0,1.0,73,0.00,,,0.00,,2013-02-18 14:22:00,
2013-02-18 09:33:00,25.0,18.0,30.53,East,87,0.0,2.0,73,0.00,,,0.00,,2013-02-18 14:33:00,
2013-02-18 09:42:00,25.0,18.0,30.53,East,87,0.0,2.0,73,0.00,,,0.00,,2013-02-18 14:42:00,
2013-02-18 09:54:00,26.0,18.0,30.53,ENE,73,0.0,2.0,72,0.00,,,0.00,,2013-02-18 14:54:00,
2013-02-18 10:02:00,27.0,18.0,30.53,ENE,75,0.0,2.0,69,0.00,,,0.00,,2013-02-18 15:02:00,
2013-02-18 10:12:00,27.0,18.0,30.53,ENE,75,0.0,2.0,69,0.00,,,0.00,,2013-02-18 15:12:00,
2013-02-18 10:22:00,28.0,18.0,30.53,East,79,0.0,2.0,67,0.00,,,0.00,,2013-02-18 15:22:00,
2013-02-18 10:32:00,29.0,19.0,30.53,East,79,0.0,2.0,65,0.00,,,0.00,,2013-02-18 15:32:00,
2013-02-18 10:42:00,29.0,19.0,30.53,East,79,0.0,2.0,65,0.00,,,0.00,,2013-02-18 15:42:00,
2013-02-18 10:53:00,31.0,19.0,30.52,ENE,68,0.0,3.0,60,0.00,,,0.00,,2013-02-18 15:53:00,
2013-02-18 11:03:00,33.0,20.0,30.52,NE,56,0.0,3.0,59,0.00,,,0.00,,2013-02-18 16:03:00,
2013-02-18 11:12:00,33.0,20.0,30.52,NE,56,0.0,3.0,59,0.00,,,0.00,,2013-02-18 16:12:00,
2013-02-18 11:22:00,34.0,21.0,30.52,East,90,0.0,3.0,59,0.00,,,0.00,,2013-02-18 16:22:00,
2013-02-18 11:32:00,35.0,21.0,30.51,ENE,60,1.0,3.0,56,0.00,,,0.00,,2013-02-18 16:32:00,
2013-02-18 11:42:00,35.0,21.0,30.51,ENE,60,1.0,3.0,56,0.00,,,0.00,,2013-02-18 16:42:00,
2013-02-18 11:53:00,37.0,22.0,30.51,ENE,60,0.0,3.0,55,0.00,,,0.00,,2013-02-18 16:53:00,
2013-02-18 12:04:00,38.0,23.0,30.50,ENE,66,1.0,4.0,54,0.00,,,0.00,,2013-02-18 17:04:00,
2013-02-18 12:12:00,38.0,23.0,30.50,ENE,66,1.0,4.0,54,0.00,,,0.00,,2013-02-18 17:12:00,
2013-02-18 12:22:00,40.0,24.0,30.49,NW,323,0.0,4.0,52,0.00,,,0.00,,2013-02-18 17:22:00,
2013-02-18 12:32:00,41.0,24.0,30.49,WSW,252,2.0,9.0,50,0.00,,,0.00,,2013-02-18 17:32:00,
2013-02-18 12:42:00,41.0,24.0,30.49,WSW,252,2.0,9.0,50,0.00,,,0.00,,2013-02-18 17:42:00,
2013-02-18 12:53:00,42.0,26.0,30.48,WSW,258,4.0,8.0,52,0.00,,,0.00,,2013-02-18 17:53:00,
2013-02-18 13:02:00,43.0,25.0,30.47,WSW,245,4.0,10.0,48,0.00,,,0.00,,2013-02-18 18:02:00,
2013-02-18 13:12:00,43.0,25.0,30.47,WSW,245,4.0,10.0,48,0.00,,,0.00,,2013-02-18 18:12:00,
2013-02-18 13:23:00,44.0,26.0,30.46,West,262,6.0,13.0,49,0.00,,,0.00,,2013-02-18 18:23:00,
2013-02-18 13:33:00,45.0,27.0,30.44,WSW,237,3.0,9.0,50,0.00,,,0.00,,2013-02-18 18:33:00,
2013-02-18 13:42:00,45.0,27.0,30.44,WSW,237,3.0,9.0,50,0.00,,,0.00,,2013-02-18 18:42:00,
2013-02-18 13:53:00,46.0,27.0,30.43,SSW,207,4.0,9.0,47,0.00,,,0.00,,2013-02-18 18:53:00,
2013-02-18 14:03:00,47.0,27.0,30.42,SSW,195,1.0,8.0,46,0.00,,,0.00,,2013-02-18 19:03:00,
2013-02-18 14:12:00,47.0,27.0,30.42,SSW,195,1.0,8.0,46,0.00,,,0.00,,2013-02-18 19:12:00,
2013-02-18 14:22:00,48.0,29.0,30.42,SSW,200,2.0,9.0,47,0.00,,,0.00,,2013-02-18 19:22:00,
2013-02-18 14:33:00,49.0,29.0,30.41,WSW,244,2.0,8.0,46,0.00,,,0.00,,2013-02-18 19:33:00,
2013-02-18 14:43:00,49.0,29.0,30.41,WSW,244,2.0,8.0,46,0.00,,,0.00,,2013-02-18 19:43:00,
2013-02-18 14:53:00,49.0,28.0,30.40,South,172,0.0,12.0,44,0.00,,,0.00,,2013-02-18 19:53:00,
2013-02-18 15:02:00,50.0,28.0,30.39,SE,132,3.0,11.0,42,0.00,,,0.00,,2013-02-18 20:02:00,
2013-02-18 15:12:00,50.0,28.0,30.39,SE,132,3.0,11.0,42,0.00,,,0.00,,2013-02-18 20:12:00,
2013-02-18 15:23:00,50.0,27.0,30.38,SW,227,4.0,9.0,41,0.00,,,0.00,,2013-02-18 20:23:00,
2013-02-18 15:33:00,51.0,28.0,30.38,WNW,302,3.0,10.0,41,0.00,,,0.00,,2013-02-18 20:33:00,
2013-02-18 15:42:00,51.0,28.0,30.38,WNW,302,3.0,10.0,41,0.00,,,0.00,,2013-02-18 20:42:00,
2013-02-18 15:53:00,51.0,28.0,30.37,North,358,3.0,14.0,40,0.00,,,0.00,,2013-02-18 20:53:00,
2013-02-18 16:03:00,52.0,28.0,30.38,ENE,70,2.0,16.0,39,0.00,,,0.00,,2013-02-18 21:03:00,
2013-02-18 16:12:00,52.0,28.0,30.38,ENE,70,2.0,16.0,39,0.00,,,0.00,,2013-02-18 21:12:00,
2013-02-18 16:22:00,53.0,28.0,30.38,SE,129,1.0,7.0,38,0.00,,,0.00,,2013-02-18 21:22:00,
2013-02-18 16:32:00,53.0,27.0,30.37,West,276,3.0,13.0,36,0.00,,,0.00,,2013-02-18 21:32:00,
2013-02-18 16:43:00,53.0,27.0,30.37,West,276,3.0,13.0,36,0.00,,,0.00,,2013-02-18 21:43:00,
2013-02-18 16:53:00,52.0,26.0,30.37,SSE,152,3.0,12.0,36,0.00,,,0.00,,2013-02-18 21:53:00,
2013-02-18 17:03:00,51.0,26.0,30.37,South,191,4.0,10.0,38,0.00,,,0.00,,2013-02-18 22:03:00,
2013-02-18 17:12:00,49.0,25.0,30.37,South,179,4.0,13.0,39,0.00,,,0.00,,2013-02-18 22:12:00,
2013-02-18 17:23:00,49.0,25.0,30.37,South,179,4.0,13.0,39,0.00,,,0.00,,2013-02-18 22:23:00,
2013-02-18 17:33:00,47.0,25.0,30.36,SW,228,1.0,12.0,42,0.00,,,0.00,,2013-02-18 22:33:00,
2013-02-18 17:43:00,47.0,25.0,30.36,SW,228,1.0,12.0,42,0.00,,,0.00,,2013-02-18 22:43:00,
2013-02-18 17:54:00,46.0,24.0,30.36,South,176,3.0,10.0,42,0.00,,,0.00,,2013-02-18 22:54:00,
2013-02-18 18:02:00,45.0,24.0,30.36,SW,216,3.0,9.0,44,0.00,,,0.00,,2013-02-18 23:02:00,
2013-02-18 18:12:00,45.0,24.0,30.36,SW,216,3.0,9.0,44,0.00,,,0.00,,2013-02-18 23:12:00,
2013-02-18 18:23:00,44.0,25.0,30.37,SE,134,1.0,9.0,46,0.00,,,0.00,,2013-02-18 23:23:00,
2013-02-18 18:43:00,43.0,24.0,30.36,SSE,154,1.0,17.0,46,0.00,,,0.00,,2013-02-18 23:43:00,
2013-02-18 18:53:00,42.0,24.0,30.36,SSW,207,3.0,12.0,48,0.00,,,0.00,,2013-02-18 23:53:00,
2013-02-18 19:12:00,42.0,24.0,30.37,WSW,245,5.0,15.0,48,0.00,,,0.00,,2013-02-19 00:12:00,
2013-02-18 19:23:00,41.0,23.0,30.36,South,190,3.0,17.0,49,0.00,,,0.00,,2013-02-19 00:23:00,
2013-02-18 19:34:00,40.0,23.0,30.36,SW,226,3.0,10.0,50,0.00,,,0.00,,2013-02-19 00:34:00,
2013-02-18 19:43:00,40.0,23.0,30.36,SW,226,3.0,10.0,50,0.00,,,0.00,,2013-02-19 00:43:00,
2013-02-18 19:55:00,40.0,23.0,30.36,SSE,164,5.0,14.0,50,0.00,,,0.00,,2013-02-19 00:55:00,
2013-02-18 20:03:00,40.0,23.0,30.36,South,188,3.0,19.0,50,0.00,,,0.00,,2013-02-19 01:03:00,
2013-02-18 20:14:00,40.0,23.0,30.36,South,188,3.0,19.0,50,0.00,,,0.00,,2013-02-19 01:14:00,
2013-02-18 20:24:00,40.0,23.0,30.35,South,190,3.0,11.0,50,0.00,,,0.00,,2013-02-19 01:24:00,
2013-02-18 20:34:00,40.0,23.0,30.35,WSW,250,5.0,13.0,51,0.00,,,0.00,,2013-02-19 01:34:00,
2013-02-18 20:44:00,40.0,23.0,30.35,WSW,250,5.0,13.0,51,0.00,,,0.00,,2013-02-19 01:44:00,
2013-02-18 20:56:00,40.0,23.0,30.35,WSW,243,5.0,24.0,51,0.00,,,0.00,,2013-02-19 01:56:00,
2013-02-18 21:03:00,40.0,23.0,30.35,SSW,204,6.0,19.0,51,0.00,,,0.00,,2013-02-19 02:03:00,
2013-02-18 21:14:00,40.0,23.0,30.35,SSW,204,6.0,19.0,51,0.00,,,0.00,,2013-02-19 02:14:00,
2013-02-18 21:23:00,40.0,23.0,30.35,SSW,207,7.0,22.0,51,0.00,,,0.00,,2013-02-19 02:23:00,
2013-02-18 21:34:00,40.0,23.0,30.35,ENE,72,0.0,19.0,51,0.00,,,0.00,,2013-02-19 02:34:00,
2013-02-18 21:43:00,40.0,23.0,30.35,ENE,72,0.0,19.0,51,0.00,,,0.00,,2013-02-19 02:43:00,
2013-02-18 21:55:00,40.0,23.0,30.35,ENE,72,0.0,19.0,51,0.00,,,0.00,,2013-02-19 02:55:00,
2013-02-18 22:06:00,39.0,24.0,30.33,SSW,195,5.0,13.0,54,0.00,,,0.00,,2013-02-19 03:06:00,
2013-02-18 22:15:00,39.0,24.0,30.33,SSW,195,5.0,13.0,54,0.00,,,0.00,,2013-02-19 03:15:00,
2013-02-18 22:25:00,39.0,24.0,30.32,SW,227,11.0,21.0,55,0.00,,,0.00,,2013-02-19 03:25:00,
2013-02-18 22:35:00,39.0,24.0,30.33,South,174,6.0,18.0,55,0.00,,,0.00,,2013-02-19 03:35:00,
2013-02-18 22:44:00,39.0,24.0,30.33,South,174,6.0,18.0,55,0.00,,,0.00,,2013-02-19 03:44:00,
2013-02-18 22:55:00,39.0,24.0,30.33,South,174,6.0,18.0,55,0.00,,,0.00,,2013-02-19 03:55:00,
2013-02-18 23:03:00,38.0,24.0,30.32,SE,146,7.0,17.0,56,0.00,,,0.00,,2013-02-19 04:03:00,
2013-02-18 23:14:00,38.0,24.0,30.32,SE,146,7.0,17.0,56,0.00,,,0.00,,2013-02-19 04:14:00,
2013-02-18 23:24:00,38.0,24.0,30.31,ESE,113,4.0,13.0,56,0.00,,,0.00,,2013-02-19 04:24:00,
2013-02-18 23:34:00,38.0,24.0,30.31,SSE,156,3.0,14.0,57,0.00,,,0.00,,2013-02-19 04:34:00,
2013-02-18 23:44:00,38.0,24.0,30.31,SSE,156,3.0,14.0,57,0.00,,,0.00,,2013-02-19 04:44:00,
2013-02-18 23:55:00,37.0,23.0,30.30,SW,233,2.0,23.0,57,0.00,,,0.00,,2013-02-19 04:55:00,